This demonstration page uses our WeatherBlox Daily Observations layout. Learn more.

Left ArrowRight Arrow

47.50024, -111.30081

Hourly Observations for May 30, 2015

Temp ( °F °C ) Dew Point ( °F °C ) Humidity (%) Winds ( mph kmh ) Pressure ( in mb ) Visibility ( mi km ) Precip ( " mm )
12:53 am 00:53 Mostly Clear 50 10 45 7.2 83 83 S 3 6 30.03 1017 10 16 0.00 0.00
1:53 am 01:53 Clear 50 10 46 7.8 86 86 S 9 15 30.03 1017 10 16 0.00 0.00
2:53 am 02:53 Clear 51 10.6 46 7.8 83 83 SSW 10 17 30.02 1017 10 16 0.00 0.00
3:53 am 03:53 Clear 53 11.7 45 7.2 74 74 SE 5 7 29.99 1016 10 16 0.00 0.00
4:53 am 04:53 Clear 51 10.6 45 7.2 80 80 SSE 7 11 29.99 1016 10 16 0.00 0.00
5:53 am 05:53 Sunny 48 8.9 45 7.2 89 89 ESE 5 7 29.98 1015 10 16 0.00 0.00
6:53 am 06:53 Sunny 53 11.7 47 8.3 80 80 SE 7 11 29.97 1015 10 16 0.00 0.00
7:53 am 07:53 Sunny 57 13.9 47 8.3 69 69 S 5 7 29.96 1015 10 16 0.00 0.00
8:53 am 08:53 Partly Cloudy 61 16.1 49 9.4 65 65 Calm 29.96 1015 10 16 0.00 0.00
9:53 am 09:53 Mostly Cloudy 60 15.6 51 10.6 72 72 NNW 7 11 29.97 1015 10 16 0.00 0.00
10:53 am 10:53 Cloudy with Light Rain 59 15 50 10 72 72 W 3 6 30.00 1016 8 13 0.01 0.25
11:53 am 11:53 Cloudy with Light Rain 58 14.4 54 12.2 87 87 N 6 9 30.00 1016 10 16 0.02 0.51
12:53 pm 12:53 Mostly Cloudy 59 15 53 11.7 81 81 Calm 30.01 1016 10 16 0.00 0.03
1:35 pm 13:35 Cloudy with Light Rain 61 16 54 12 77 77 WNW 6 9 29.91 1013 10 16 0.00 0.00
1:53 pm 13:53 Cloudy with Light Rain 59 15 54 12.2 83 83 W 7 11 30.01 1016 10 16 0.00 0.03
2:03 pm 14:03 Cloudy with Light Rain 59 15 54 12 82 82 WNW 6 9 29.91 1013 10 16 0.00 0.00
2:53 pm 14:53 Mostly Sunny 64 17.8 54 12.2 70 70 S 8 13 29.97 1015 10 16 0.00 0.03
3:53 pm 15:53 Sunny 66 18.9 51 10.6 59 59 Calm 29.93 1014 10 16 0.00 0.00
4:53 pm 16:53 Sunny 69 20.6 51 10.6 53 53 WSW 5 7 29.92 1013 10 16 0.00 0.00
5:53 pm 17:53 Sunny 68 20 52 11.1 57 57 Calm 29.91 1013 10 16 0.00 0.00
6:53 pm 18:53 Cloudy with Light Rain 61 16.1 54 12.2 78 78 W 12 19 29.94 1014 8 13 0.02 0.51
7:00 pm 19:00 Cloudy with Heavy Rain 55 13 52 11 88 88 W 17 28 29.88 1012 2 2 0.00 0.00
7:04 pm 19:04 Cloudy with Heavy Rain 55 13 52 11 88 88 W 9 15 29.88 1012 1 1 0.00 0.00
7:12 pm 19:12 Cloudy with Light Rain 55 13 52 11 88 88 NW 8 13 29.88 1012 2 2 0.00 0.00
7:15 pm 19:15 Cloudy with Light Rain 56 13.3 52 11.1 87 87 NW 17 28 29.88 1012 4 6 0.27 6.86
7:53 pm 19:53 Cloudy with Light Rain 58 14.4 54 12.2 87 87 E 8 13 29.92 1013 10 16 0.34 8.64
8:53 pm 20:53 Cloudy 56 13.3 53 11.7 90 90 SSW 5 7 29.93 1014 10 16 0.00 0.03
9:53 pm 21:53 Partly Cloudy 54 12.2 51 10.6 90 90 NNW 6 9 29.95 1014 10 16 0.00 0.03
10:53 pm 22:53 Mostly Clear 52 11.1 50 10 93 93 SSW 6 9 29.95 1014 10 16 0.00 0.00
11:53 pm 23:53 Clear 51 10.6 50 10 96 96 Calm 29.97 1015 10 16 0.00 0.00

Powered by AerisWeather